Regional Weather Roundup
Issued by NWS

Home | Current Version | Previous Version | Text Only | Print | Product List | Glossary On
Versions: 1 2 3 4 5 6 7 8 9 10 11 12 13 14 15 16 17 18 19 20 21 22 23 24 25 26 27 28 29 30 31 32 33 34 35 36 37 38 39 40 41 42 43 44 45 46 47 48 49 50
000
ASUS44 KJAN 172010
RWRMS

MISSISSIPPI HOURLY WEATHER ROUNDUP
NATIONAL WEATHER SERVICE JACKSON MS
200 PM CST WED DEC 17 2014

NOTE: "FAIR: INDICATES FEW OR NO CLOUDS BELOW 12,000 FEET WITH NO
SIGNIFICANT WEATHER AND/OR OBSTRUCTIONS TO VISIBILITY.

MSZ001>002-007>008-010>013-018>021-025>028-034>036-172100-
NORTHWEST MISSISSIPPI

CITY           SKY/WX    TMP DP  RH WIND       PRES   REMARKS
CLARKSDALE     FAIR      43  36  75 CALM      30.28F
CLEVELAND      FAIR      45  37  71 NW6       30.27S
GREENWOOD      PTSUNNY   50  35  56 NW6       30.25F
GREENVILLE     CLOUDY    47  37  68 N5        30.26F
GRENADA        FAIR      48  34  57 CALM      30.25F
OLIVE BRANCH   CLOUDY    41  36  81 N3        30.27F
OXFORD         FAIR      45  32  61 NW3       30.25F
TUNICA         CLOUDY    43  34  70 N5        30.28F
$$

MSZ003>006-009-014>017-022>024-029>033-037>039-172100-
NORTHEAST MISSISSIPPI

CITY           SKY/WX    TMP DP  RH WIND       PRES   REMARKS
COLUMBUS AFB   NOT AVBL
CORINTH        FAIR      45  34  65 CALM      30.23F
GOLDN TRIANGLE SUNNY     52  37  58 N7        30.25R
STARKVILLE     FAIR      52  37  58 W6        30.23F
TUPELO         PTSUNNY   49  35  58 NE6       30.23F
$$

MSZ040-058-172100-
CENTRAL MISSISSIPPI

CITY           SKY/WX    TMP DP  RH WIND       PRES   REMARKS
JACKSON INTL   CLOUDY    55  35  47 N5        30.23F
JACKSON HAWKNS CLOUDY    55  37  50 CALM      30.23F
MERIDIAN KEY   MOSUNNY   57  37  47 W5        30.20F
MERIDIAN NAS   SUNNY     55  37  50 NW7       30.21F
RAYMOND        FAIR      55  50  82 W6        30.23S
VICKSBURG      SUNNY     54  37  52 N5        30.25S
$$

MSZ059>079-172100-
SOUTH MISSISSIPPI

CITY           SKY/WX    TMP DP  RH WIND       PRES   REMARKS
HATTIESBURG    CLOUDY    58  39  49 N3        30.21F
MCCOMB         MOSUNNY   57  39  51 N5        30.20F
NATCHEZ        MOSUNNY   55  37  50 S3        30.23F
PINE BELT      CLOUDY    55  37  50 NW3       30.21F
$$

MSZ080>082-172100-
COASTAL MISSISSIPPI

CITY           SKY/WX    TMP DP  RH WIND       PRES   REMARKS
BAY ST LOUIS   SUNNY     57  36  44 VRB5      30.20F
BILOXI         CLOUDY    59  39  48 N6        30.19F
PASCAGOULA     CLOUDY    59  38  45 VRB5      30.19F
GULFPORT       CLOUDY    59  39  47 NW6       30.19F
$$


USA.gov is the U.S. government's official web portal to all federal, state and local government web resources and services.